Home > Time Zones > World Clock > Weather > Russia > Ufa > Past weeks

Flag for Russia Weather past 2 weeks in Ufa, Russia

Now
66 °F

Sunny.


Feels Like: 66 °F
Forecast: 59 / 79 °F
Wind: 3 mph from Southeast

Location: Ufa

Current Time: Jul 29, 2015 at 9:50:03 PM

Latest Report: Jul 29, 2015 at 9:30 PM


Visibility: 10 mi

Pressure: 29.86 "Hg

Humidity: 68%

Dew point: 55 °F

Location of UfaLocation

Historic Weather in Ufa — Graph

°F

Ufa temperature yesterday

Maximum temperature yesterday: 73 °F (at 2:30 PM)
Minimum temperature yesterday: 50 °F (at 2:30 AM)
Average temperature yesterday: 63 °F

Past Weeks' High & Low Weather Summary

 TemperatureHumidityPressure
High79 °F (Jul 15, 3:00 PM)100% (Jul 16, 4:30 AM)29.95 "Hg (Jul 16, 4:30 AM)
Low46 °F (Jul 20, 3:30 AM)36% (Jul 20, 5:00 PM)29.56 "Hg (Jul 22, 1:00 AM)
Average64 °F74%29.77 "Hg
* Reported Jul 14 8:00 PM — Jul 29 8:30 PM, Ufa, Weather by CustomWeather, © 2015

Note: Actual official high and low records may vary slightly from our data, if they occured in-between our weather recording intervals... More about our weather records

Advertising

Ufa weather history for previous 24 hours

 ConditionsComfort  
Time TempWeatherWind HumidityBarometerVisibility
8:30 PM
Wed, Jul 29
72 °FPassing clouds.3 mph57%29.86 "HgN/A
8:00 PM73 °FPassing clouds.3 mph50%29.86 "HgN/A
7:30 PM73 °FPassing clouds.6 mph50%29.86 "HgN/A
7:00 PM75 °FSunny.1 mph50%29.86 "Hg10 mi
6:30 PM75 °FSunny.3 mph47%29.86 "Hg10 mi
6:00 PM75 °FClear.3 mph50%29.89 "HgN/A
5:30 PM75 °FClear.3 mph47%29.89 "HgN/A
5:00 PM75 °FClear.6 mph47%29.89 "HgN/A
4:30 PM75 °FPartly sunny.3 mph50%29.89 "HgN/A
4:00 PM75 °FPartly sunny.3 mph50%29.89 "HgN/A
3:30 PM73 °FPartly sunny.3 mph50%29.89 "HgN/A
3:00 PM73 °FPartly sunny.1 mph50%29.92 "HgN/A
2:30 PM72 °FPartly sunny.3 mph57%29.92 "HgN/A
2:00 PM72 °FPartly sunny.3 mph53%29.92 "HgN/A
1:30 PM72 °FPartly sunny.3 mph53%29.92 "HgN/A
1:00 PM72 °FPartly sunny.1 mph53%29.92 "HgN/A
12:30 PM68 °FPartly sunny.1 mph60%29.92 "HgN/A
12:00 PM70 °FPartly sunny.3 mph57%29.92 "HgN/A
11:30 AM68 °FScattered clouds.3 mph60%29.95 "HgN/A
11:00 AM68 °FScattered clouds.1 mph60%29.92 "HgN/A
10:30 AM68 °FScattered clouds.1 mph60%29.95 "HgN/A
10:00 AM66 °FSunny.1 mph64%29.95 "Hg10 mi
9:30 AM66 °FSunny.1 mph64%29.95 "Hg10 mi
8:30 AM63 °FFog.1 mph77%29.95 "Hg2 mi
8:00 AM59 °FFog.1 mph88%29.95 "Hg2 mi
7:30 AM57 °FFog.1 mph94%29.95 "Hg2 mi
7:00 AM55 °FFog.1 mph94%29.92 "Hg2 mi
6:30 AM55 °FFog.1 mph94%29.92 "Hg2 mi
6:00 AM54 °FFog.1 mph94%29.92 "Hg2 mi
5:30 AM55 °FFog.3 mph94%29.92 "Hg2 mi
5:00 AM52 °FFog.3 mph100%29.92 "Hg2 mi
4:30 AM52 °FFog.1 mph94%29.92 "Hg3 mi
4:00 AM54 °FFog.3 mph94%29.92 "Hg3 mi
3:30 AM54 °FFog.3 mph94%29.92 "Hg3 mi
2:00 AM55 °FClear.1 mph94%29.89 "Hg10 mi
1:30 AM57 °FClear.1 mph88%29.89 "Hg10 mi
1:00 AM55 °FClear.1 mph94%29.89 "Hg10 mi
12:30 AM59 °FClear.No wind88%29.89 "Hg10 mi
12:00 AM63 °FPassing clouds.3 mph77%29.89 "HgN/A
11:30 PM
Tue, Jul 28
61 °FClear.1 mph83%29.89 "Hg10 mi
11:00 PM61 °FSunny.1 mph83%29.89 "Hg10 mi
10:30 PM64 °FSunny.No wind73%29.89 "Hg10 mi
10:00 PM63 °FPassing clouds.3 mph77%29.86 "HgN/A
9:30 PM64 °FSunny.6 mph73%29.86 "Hg10 mi
9:00 PM66 °FSunny.6 mph73%29.86 "Hg10 mi
Weather by CustomWeather, © 2015

See weather overviewHow to use our weather pages